BEIJING 1 1 28890U 05043A 26165.89447610 .00000653 00000+0 13521-3 0 9996 2 28890 98.2904 299.0943 0013427 291.6838 68.2934 14.63532677100312 HUANJING 1A (HJ-1A) 1 33320U 08041A 26165.87378041 .00001180 00000+0 14747-3 0 9997 2 33320 97.6675 151.8013 0019798 141.8405 218.4216 14.83983014958062 HUANJING 1B (HJ-1B) 1 33321U 08041B 26165.84180505 .00000399 00000+0 54557-4 0 9996 2 33321 97.6511 154.9490 0035821 188.7611 171.2982 14.83311564958060 YAOGAN-4 1 33446U 08061A 26165.80589306 .00000891 00000+0 11558-3 0 9994 2 33446 97.9308 99.3337 0015743 79.4478 280.8509 14.83196039945319 DEIMOS-1 1 35681U 09041A 26165.88025133 .00000938 00000+0 14577-3 0 9993 2 35681 97.7393 323.2079 0001462 132.8749 227.2583 14.75237344906549 UK-DMC 2 1 35683U 09041C 26165.85314704 .00000530 00000+0 84062-4 0 9992 2 35683 97.8829 300.8764 0001202 76.6538 283.4806 14.76023151906228 DMC3-FM1 1 40715U 15032A 26165.84818115 .00000877 00000+0 10688-3 0 9991 2 40715 97.6469 31.1155 0007069 65.9931 294.2024 14.85736879589565 DMC3-FM2 1 40716U 15032B 26165.87024049 .00001040 00000+0 12564-3 0 9998 2 40716 97.6526 32.7090 0007680 70.0462 290.1580 14.85744446589561 DMC3-FM3 1 40717U 15032C 26165.89355101 .00000134 00000+0 21385-4 0 9992 2 40717 97.6577 34.4829 0006835 69.7260 290.4690 14.85730484589572